{"data":{"norad_id":63689,"epoch":"2026-09-21T21:25:26.960160Z","epoch_age_seconds":87314,"freshness":"FRESH","line1":"1 63689U 25086C   26264.89267315 -.00000160  00000+0 -40607-3 0  9992","line2":"2 63689  86.4974 280.4706 0001730  78.5745 281.5584 13.24411461 67661","mean_motion":13.24411461,"eccentricity":0.000173,"inclination_deg":86.4974,"raan_deg":280.4706,"arg_perigee_deg":78.5745,"mean_anomaly_deg":281.5584,"bstar":-0.00040607,"rev_number":6766,"period_min":108.72753992273,"perigee_km":1166.6111688163,"apogee_km":1169.2221033744,"semimajor_km":7546.0536360953,"source":"CELESTRAK","updated_at":"2026-09-22T09:00:29.282057Z"}}